Flag for Russia Weather past 2 weeks in Surgut, Russia

Now
36 °F

Broken clouds.


Feels Like: 33 °F
Forecast: 28 / 41 °F
Wind: 3 mph from Southwest

Location: Surgut Airport

Current Time: Apr 19, 2015 at 8:23:57 PM

Latest Report: Apr 19, 2015 at 8:00 PM


Visibility: 4 mi

Pressure: 29.53 "Hg

Humidity: 100%

Dew point: 36 °F

Location of SurgutLocation

Historic Weather in Surgut — Graph

°F

Surgut temperature yesterday

Maximum temperature yesterday: 41 °F (at 4:00 PM)
Minimum temperature yesterday: 34 °F (at 3:00 AM)
Average temperature yesterday: 37 °F

Past Weeks' High & Low Weather Summary

 TemperatureHumidityPressure
High52 °F (Apr 6, 11:30 AM)100% (Apr 8, 9:00 PM)30.69 "Hg (Apr 8, 9:00 PM)
Low21 °F (Apr 16, 11:30 PM)32% (Apr 7, 2:30 PM)29.39 "Hg (Apr 10, 5:30 PM)
Average36 °F75%29.86 "Hg
* Reported Apr 4 7:00 PM — Apr 19 7:00 PM, Surgut, Weather by CustomWeather, © 2015

Note: Actual official high and low records may vary slightly from our data, if they occured in-between our weather recording intervals... More about our weather records

Advertising

Surgut weather history for previous 24 hours

 ConditionsComfort  
Time TempWeatherWind HumidityBarometerVisibility
7:00 PM
Sun, Apr 19
37 °FScattered clouds.8 mph93%29.50 "Hg4 mi
6:30 PM37 °FSprinkles. Scattered clouds.8 mph93%29.50 "Hg4 mi
6:00 PM37 °FScattered clouds.6 mph93%29.50 "Hg4 mi
5:30 PM37 °FScattered clouds.6 mph93%29.50 "Hg4 mi
5:00 PM39 °FSprinkles. Scattered clouds.8 mph87%29.47 "Hg4 mi
4:30 PM41 °FPartly sunny.8 mph81%29.47 "Hg4 mi
4:00 PM39 °FScattered clouds.8 mph93%29.47 "Hg4 mi
3:30 PM39 °FScattered clouds.8 mph93%29.47 "Hg4 mi
3:00 PM37 °FSprinkles. Scattered clouds.13 mph93%29.45 "Hg4 mi
2:30 PM45 °FScattered clouds.6 mph71%29.45 "Hg4 mi
2:00 PM41 °FScattered clouds.6 mph81%29.45 "Hg4 mi
1:30 PM41 °FSprinkles. Scattered clouds.10 mph81%29.45 "Hg4 mi
1:00 PM43 °FBroken clouds.8 mph76%29.45 "Hg4 mi
12:30 PM41 °FBroken clouds.8 mph81%29.45 "Hg4 mi
12:00 PM39 °FOvercast.8 mph87%29.42 "Hg4 mi
11:30 AM37 °FLow clouds.10 mph93%29.42 "Hg4 mi
11:00 AM37 °FLow clouds.10 mph93%29.42 "Hg4 mi
10:30 AM36 °FLow clouds.8 mph100%29.42 "Hg4 mi
10:00 AM36 °FLow clouds.8 mph100%29.42 "Hg4 mi
9:30 AM36 °FLow clouds.8 mph100%29.42 "Hg4 mi
9:00 AM36 °FFog.8 mph100%29.42 "Hg3 mi
8:30 AM36 °FFog.8 mph93%29.42 "Hg2 mi
8:00 AM36 °FFog.8 mph93%29.42 "Hg1 mi
7:30 AM36 °FFog.8 mph100%29.39 "Hg1 mi
7:00 AM36 °FFog.8 mph100%29.42 "Hg1 mi
6:30 AM36 °FFog.8 mph100%29.39 "Hg2 mi
6:00 AM36 °FFog.6 mph100%29.39 "Hg1 mi
5:30 AM36 °FFog.8 mph100%29.39 "Hg1 mi
5:00 AM36 °FFog.8 mph100%29.39 "Hg0 mi
4:30 AM36 °FFog.8 mph100%29.39 "Hg2 mi
4:00 AM36 °FFog.6 mph100%29.39 "Hg1 mi
3:30 AM36 °FFog.8 mph100%29.39 "Hg0 mi
3:00 AM36 °FFog.8 mph100%29.39 "Hg0 mi
2:30 AM37 °FFog.6 mph100%29.39 "Hg2 mi
2:00 AM37 °FFog.8 mph100%29.39 "Hg2 mi
1:30 AM37 °FPartly cloudy.6 mph100%29.39 "Hg4 mi
1:00 AM37 °FLow clouds.6 mph100%29.39 "Hg4 mi
12:30 AM39 °FLow clouds.8 mph93%29.39 "Hg4 mi
12:00 AM39 °FFog.6 mph93%29.39 "Hg2 mi
11:30 PM
Sat, Apr 18
39 °FLight rain. Fog.3 mph93%29.39 "Hg2 mi
11:00 PM39 °FSprinkles. Partly cloudy.3 mph93%29.39 "Hg4 mi
10:30 PM39 °FSprinkles. Partly cloudy.3 mph100%29.39 "Hg4 mi
10:00 PM39 °FSprinkles. Fog.1 mph100%29.39 "Hg2 mi
9:30 PM39 °FSprinkles. Passing clouds.3 mph100%29.39 "Hg4 mi
9:00 PM39 °FSprinkles. Fog.1 mph100%29.42 "Hg3 mi
8:30 PM41 °FSprinkles. Scattered clouds.1 mph93%29.42 "Hg4 mi
8:00 PM41 °FSprinkles. Mostly cloudy.6 mph93%29.42 "Hg4 mi
Weather by CustomWeather, © 2015

See weather overviewHow to use our weather pages